Year,Month,Day,Hour,Minute,Value (Times are PST for windspeed in km/hr)
2021,06,12,00,00,3.00
2021,06,12,00,01,3.10
2021,06,12,00,02,2.40
2021,06,12,00,03,2.50
2021,06,12,00,04,3.70
2021,06,12,00,05,1.80
2021,06,12,00,06,0.60
2021,06,12,00,07,0.60
2021,06,12,00,08,2.00
2021,06,12,00,09,1.00
2021,06,12,00,10,2.50
2021,06,12,00,11,1.20
2021,06,12,00,12,0.80
2021,06,12,00,13,3.10
2021,06,12,00,14,2.30
2021,06,12,00,15,4.30
2021,06,12,00,16,2.50
2021,06,12,00,17,2.60
2021,06,12,00,18,1.00
2021,06,12,00,19,0.20
2021,06,12,00,20,2.40
2021,06,12,00,21,2.40
2021,06,12,00,22,1.70
2021,06,12,00,23,1.10
2021,06,12,00,24,0.20
2021,06,12,00,25,0.00
2021,06,12,00,26,0.50
2021,06,12,00,27,0.40
2021,06,12,00,28,0.00
2021,06,12,00,29,0.00
2021,06,12,00,30,0.00
2021,06,12,00,31,0.00
2021,06,12,00,32,0.10
2021,06,12,00,33,0.70
2021,06,12,00,34,1.50
2021,06,12,00,35,1.70
2021,06,12,00,36,3.70
2021,06,12,00,37,6.40
2021,06,12,00,38,6.70
2021,06,12,00,39,6.20
2021,06,12,00,40,6.50
2021,06,12,00,41,5.60
2021,06,12,00,42,4.00
2021,06,12,00,43,1.90
2021,06,12,00,44,2.00
2021,06,12,00,45,2.40
2021,06,12,00,46,2.10
2021,06,12,00,47,3.30
2021,06,12,00,48,5.20
2021,06,12,00,49,5.80
2021,06,12,00,50,5.80
2021,06,12,00,51,6.50
2021,06,12,00,52,6.20
2021,06,12,00,53,4.30
2021,06,12,00,54,3.60
2021,06,12,00,55,3.50
2021,06,12,00,56,4.80
2021,06,12,00,57,3.70
2021,06,12,00,58,3.60
2021,06,12,00,59,4.90
2021,06,12,01,00,3.90
2021,06,12,01,01,3.70
2021,06,12,01,02,3.10
2021,06,12,01,03,2.80
2021,06,12,01,04,2.50
2021,06,12,01,05,2.00
2021,06,12,01,06,1.00
2021,06,12,01,07,0.50
2021,06,12,01,08,0.80
2021,06,12,01,09,0.50
2021,06,12,01,10,0.10
2021,06,12,01,11,0.00
2021,06,12,01,12,0.00
2021,06,12,01,13,0.10
2021,06,12,01,14,0.80
2021,06,12,01,15,0.40
2021,06,12,01,16,1.00
2021,06,12,01,17,0.80
2021,06,12,01,18,0.00
2021,06,12,01,19,0.10
2021,06,12,01,20,0.10
2021,06,12,01,21,1.20
2021,06,12,01,22,1.50
2021,06,12,01,23,1.60
2021,06,12,01,24,1.90
2021,06,12,01,25,2.80
2021,06,12,01,26,2.50
2021,06,12,01,27,2.70
2021,06,12,01,28,2.50
2021,06,12,01,29,2.10
2021,06,12,01,30,2.00
2021,06,12,01,31,2.00
2021,06,12,01,32,2.50
2021,06,12,01,33,1.70
2021,06,12,01,34,1.70
2021,06,12,01,35,2.30
2021,06,12,01,36,1.40
2021,06,12,01,37,1.70
2021,06,12,01,38,2.20
2021,06,12,01,39,2.70
2021,06,12,01,40,3.20
2021,06,12,01,41,2.40
2021,06,12,01,42,2.30
2021,06,12,01,43,2.00
2021,06,12,01,44,1.90
2021,06,12,01,45,1.90
2021,06,12,01,46,1.80
2021,06,12,01,47,0.80
2021,06,12,01,48,1.70
2021,06,12,01,49,1.90
2021,06,12,01,50,3.50
2021,06,12,01,51,5.50
2021,06,12,01,52,5.70
2021,06,12,01,53,5.30
2021,06,12,01,54,4.90
2021,06,12,01,55,4.30
2021,06,12,01,56,3.30
2021,06,12,01,57,2.10
2021,06,12,01,58,1.30
2021,06,12,01,59,0.80
2021,06,12,02,00,1.10
2021,06,12,02,01,0.70
2021,06,12,02,02,1.30
2021,06,12,02,03,0.90
2021,06,12,02,04,1.10
2021,06,12,02,05,1.60
2021,06,12,02,06,1.30
2021,06,12,02,07,1.30
2021,06,12,02,08,1.70
2021,06,12,02,09,1.80
2021,06,12,02,10,1.70
2021,06,12,02,11,1.60
2021,06,12,02,12,1.60
2021,06,12,02,13,1.00
2021,06,12,02,14,0.50
2021,06,12,02,15,0.20
2021,06,12,02,16,0.00
2021,06,12,02,17,0.00
2021,06,12,02,18,1.10
2021,06,12,02,19,1.40
2021,06,12,02,20,0.80
2021,06,12,02,21,1.50
2021,06,12,02,22,0.80
2021,06,12,02,23,0.10
2021,06,12,02,24,0.20
2021,06,12,02,25,0.50
2021,06,12,02,26,0.10
2021,06,12,02,27,0.50
2021,06,12,02,28,0.80
2021,06,12,02,29,0.90
2021,06,12,02,30,1.20
2021,06,12,02,31,1.30
2021,06,12,02,32,1.60
2021,06,12,02,33,1.30
2021,06,12,02,34,1.10
2021,06,12,02,35,0.40
2021,06,12,02,36,1.00
2021,06,12,02,37,0.80
2021,06,12,02,38,1.60
2021,06,12,02,39,0.60
2021,06,12,02,40,0.40
2021,06,12,02,41,0.70
2021,06,12,02,42,0.10
2021,06,12,02,43,0.00
2021,06,12,02,44,0.00
2021,06,12,02,45,0.00
2021,06,12,02,46,0.00
2021,06,12,02,47,0.00
2021,06,12,02,48,0.00
2021,06,12,02,49,0.00
2021,06,12,02,50,0.10
2021,06,12,02,51,0.60
2021,06,12,02,52,0.50
2021,06,12,02,53,0.20
2021,06,12,02,54,0.00
2021,06,12,02,55,0.00
2021,06,12,02,56,0.40
2021,06,12,02,57,1.10
2021,06,12,02,58,0.80
2021,06,12,02,59,1.00
2021,06,12,03,00,0.20
2021,06,12,03,01,0.00
2021,06,12,03,02,0.20
2021,06,12,03,03,0.70
2021,06,12,03,04,2.10
2021,06,12,03,05,2.30
2021,06,12,03,06,2.50
2021,06,12,03,07,2.60
2021,06,12,03,08,2.90
2021,06,12,03,09,2.90
2021,06,12,03,10,1.60
2021,06,12,03,11,1.50
2021,06,12,03,12,1.60
2021,06,12,03,13,1.90
2021,06,12,03,14,1.80
2021,06,12,03,15,0.40
2021,06,12,03,16,0.10
2021,06,12,03,17,0.00
2021,06,12,03,18,0.10
2021,06,12,03,19,0.50
2021,06,12,03,20,1.70
2021,06,12,03,21,1.30
2021,06,12,03,22,0.50
2021,06,12,03,23,0.60
2021,06,12,03,24,1.80
2021,06,12,03,25,1.70
2021,06,12,03,26,0.10
2021,06,12,03,27,0.40
2021,06,12,03,28,1.30
2021,06,12,03,29,4.10
2021,06,12,03,30,4.30
2021,06,12,03,31,4.00
2021,06,12,03,32,1.40
2021,06,12,03,33,3.40
2021,06,12,03,34,5.90
2021,06,12,03,35,3.00
2021,06,12,03,36,1.40
2021,06,12,03,37,3.00
2021,06,12,03,38,1.40
2021,06,12,03,39,0.80
2021,06,12,03,40,1.30
2021,06,12,03,41,0.10
2021,06,12,03,42,0.50
2021,06,12,03,43,0.00
2021,06,12,03,44,1.30
2021,06,12,03,45,2.00
2021,06,12,03,46,2.10
2021,06,12,03,47,1.20
2021,06,12,03,48,2.10
2021,06,12,03,49,1.80
2021,06,12,03,50,0.40
2021,06,12,03,51,1.30
2021,06,12,03,52,2.40
2021,06,12,03,53,0.60
2021,06,12,03,54,1.50
2021,06,12,03,55,0.60
2021,06,12,03,56,0.70
2021,06,12,03,57,1.10
2021,06,12,03,58,0.40
2021,06,12,03,59,0.00
2021,06,12,04,00,1.30
2021,06,12,04,01,1.90
2021,06,12,04,02,2.10
2021,06,12,04,03,3.10
2021,06,12,04,04,1.50
2021,06,12,04,05,0.30
2021,06,12,04,06,2.10
2021,06,12,04,07,1.30
2021,06,12,04,08,1.80
2021,06,12,04,09,2.10
2021,06,12,04,10,1.80
2021,06,12,04,11,0.10
2021,06,12,04,12,0.10
2021,06,12,04,13,1.10
2021,06,12,04,14,0.60
2021,06,12,04,15,1.40
2021,06,12,04,16,2.40
2021,06,12,04,17,0.90
2021,06,12,04,18,0.20
2021,06,12,04,19,0.10
2021,06,12,04,20,1.20
2021,06,12,04,21,1.10
2021,06,12,04,22,2.40
2021,06,12,04,23,2.90
2021,06,12,04,24,1.30
2021,06,12,04,25,1.70
2021,06,12,04,26,2.10
2021,06,12,04,27,1.70
2021,06,12,04,28,3.20
2021,06,12,04,29,3.20
2021,06,12,04,30,4.20
2021,06,12,04,31,3.50
2021,06,12,04,32,3.50
2021,06,12,04,33,5.50
2021,06,12,04,34,3.00
2021,06,12,04,35,3.30
2021,06,12,04,36,1.30
2021,06,12,04,37,1.60
2021,06,12,04,38,1.40
2021,06,12,04,39,2.00
2021,06,12,04,40,1.80
2021,06,12,04,41,2.00
2021,06,12,04,42,1.20
2021,06,12,04,43,1.00
2021,06,12,04,44,1.00
2021,06,12,04,45,1.50
2021,06,12,04,46,2.10
2021,06,12,04,47,3.20
2021,06,12,04,48,1.20
2021,06,12,04,49,0.30
2021,06,12,04,50,2.40
2021,06,12,04,51,2.00
2021,06,12,04,52,0.80
2021,06,12,04,53,2.60
2021,06,12,04,54,2.00
2021,06,12,04,55,2.00
2021,06,12,04,56,1.70
2021,06,12,04,57,1.60
2021,06,12,04,58,3.20
2021,06,12,04,59,2.40
2021,06,12,05,00,2.10
2021,06,12,05,01,2.50
2021,06,12,05,02,2.00
2021,06,12,05,03,2.60
2021,06,12,05,04,1.00
2021,06,12,05,05,0.30
2021,06,12,05,06,1.20
2021,06,12,05,07,0.70
2021,06,12,05,08,1.20
2021,06,12,05,09,1.40
2021,06,12,05,10,1.80
2021,06,12,05,11,1.80
2021,06,12,05,12,0.60
2021,06,12,05,13,1.10
2021,06,12,05,14,2.10
2021,06,12,05,15,3.00
2021,06,12,05,16,2.30
2021,06,12,05,17,1.70
2021,06,12,05,18,0.90
2021,06,12,05,19,1.40
2021,06,12,05,20,0.80
2021,06,12,05,21,2.70
2021,06,12,05,22,1.40
2021,06,12,05,23,1.50
2021,06,12,05,24,2.70
2021,06,12,05,25,2.50
2021,06,12,05,26,2.30
2021,06,12,05,27,1.30
2021,06,12,05,28,1.20
2021,06,12,05,29,1.10
2021,06,12,05,30,2.40
2021,06,12,05,31,2.90
2021,06,12,05,32,2.50
2021,06,12,05,33,2.70
2021,06,12,05,34,3.20
2021,06,12,05,35,1.70
2021,06,12,05,36,0.80
2021,06,12,05,37,0.80
2021,06,12,05,38,0.70
2021,06,12,05,39,0.90
2021,06,12,05,40,1.30
2021,06,12,05,41,1.90
2021,06,12,05,42,1.00
2021,06,12,05,43,0.70
2021,06,12,05,44,0.90
2021,06,12,05,45,1.30
2021,06,12,05,46,1.80
2021,06,12,05,47,2.20
2021,06,12,05,48,2.00
2021,06,12,05,49,1.20
2021,06,12,05,50,2.90
2021,06,12,05,51,3.40
2021,06,12,05,52,2.90
2021,06,12,05,53,2.60
2021,06,12,05,54,3.60
2021,06,12,05,55,4.20
2021,06,12,05,56,0.50
2021,06,12,05,57,0.80
2021,06,12,05,58,2.90
2021,06,12,05,59,2.00
2021,06,12,06,00,3.40
2021,06,12,06,01,3.40
2021,06,12,06,02,3.60
2021,06,12,06,03,1.60
2021,06,12,06,04,0.90
2021,06,12,06,05,2.80
2021,06,12,06,06,2.70
2021,06,12,06,07,1.20
2021,06,12,06,08,2.30
2021,06,12,06,09,2.00
2021,06,12,06,10,2.70
2021,06,12,06,11,1.90
2021,06,12,06,12,4.10
2021,06,12,06,13,3.30
2021,06,12,06,14,3.00
2021,06,12,06,15,2.10
2021,06,12,06,16,0.80
2021,06,12,06,17,2.10
2021,06,12,06,18,1.30
2021,06,12,06,19,3.50
2021,06,12,06,20,3.10
2021,06,12,06,21,1.80
2021,06,12,06,22,1.20
2021,06,12,06,23,0.50
2021,06,12,06,24,0.10
2021,06,12,06,25,0.50
2021,06,12,06,26,2.40
2021,06,12,06,27,3.40
2021,06,12,06,28,2.90
2021,06,12,06,29,2.50
2021,06,12,06,30,3.40
2021,06,12,06,31,2.30
2021,06,12,06,32,1.60
2021,06,12,06,33,2.30
2021,06,12,06,34,2.00
2021,06,12,06,35,0.50
2021,06,12,06,36,0.20
2021,06,12,06,37,1.80
2021,06,12,06,38,3.90
2021,06,12,06,39,6.00
2021,06,12,06,40,6.80
2021,06,12,06,41,6.70
2021,06,12,06,42,8.10
2021,06,12,06,43,7.60
2021,06,12,06,44,7.30
2021,06,12,06,45,6.30
2021,06,12,06,46,5.70
2021,06,12,06,47,4.20
2021,06,12,06,48,5.00
2021,06,12,06,49,5.50
2021,06,12,06,50,5.20
2021,06,12,06,51,5.30
2021,06,12,06,52,5.70
2021,06,12,06,53,4.60
2021,06,12,06,54,5.80
2021,06,12,06,55,5.70
2021,06,12,06,56,5.20
2021,06,12,06,57,4.00
2021,06,12,06,58,3.00
2021,06,12,06,59,3.40
2021,06,12,07,00,4.00
2021,06,12,07,01,4.50
2021,06,12,07,02,3.90
2021,06,12,07,03,4.20
2021,06,12,07,04,4.70
2021,06,12,07,05,4.60
2021,06,12,07,06,6.00
2021,06,12,07,07,5.70
2021,06,12,07,08,4.70
2021,06,12,07,09,3.40
2021,06,12,07,10,3.60
2021,06,12,07,11,3.80
2021,06,12,07,12,3.60
2021,06,12,07,13,3.70
2021,06,12,07,14,2.40
2021,06,12,07,15,3.40
2021,06,12,07,16,3.30
2021,06,12,07,17,3.10
2021,06,12,07,18,4.10
2021,06,12,07,19,2.90
2021,06,12,07,20,3.30
2021,06,12,07,21,4.20
2021,06,12,07,22,3.70
2021,06,12,07,23,3.70
2021,06,12,07,24,5.20
2021,06,12,07,25,5.80
2021,06,12,07,26,5.40
2021,06,12,07,27,5.40
2021,06,12,07,28,4.90
2021,06,12,07,29,4.70
2021,06,12,07,30,4.20
2021,06,12,07,31,4.40
2021,06,12,07,32,3.10
2021,06,12,07,33,3.10
2021,06,12,07,34,3.10
2021,06,12,07,35,1.80
2021,06,12,07,36,1.60
2021,06,12,07,37,2.00
2021,06,12,07,38,2.10
2021,06,12,07,39,3.00
2021,06,12,07,40,5.30
2021,06,12,07,41,5.20
2021,06,12,07,42,6.30
2021,06,12,07,43,6.90
2021,06,12,07,44,6.10
2021,06,12,07,45,5.30
2021,06,12,07,46,4.70
2021,06,12,07,47,4.10
2021,06,12,07,48,3.30
2021,06,12,07,49,3.00
2021,06,12,07,50,2.80
2021,06,12,07,51,3.30
2021,06,12,07,52,3.10
2021,06,12,07,53,3.40
2021,06,12,07,54,3.40
2021,06,12,07,55,3.00
2021,06,12,07,56,2.80
2021,06,12,07,57,3.30
2021,06,12,07,58,2.80
2021,06,12,07,59,2.40
2021,06,12,08,00,1.00
2021,06,12,08,01,0.40
2021,06,12,08,02,0.70
2021,06,12,08,03,0.30
2021,06,12,08,04,0.00
2021,06,12,08,05,0.10
2021,06,12,08,06,0.50
2021,06,12,08,07,0.40
2021,06,12,08,08,1.40
2021,06,12,08,09,2.80
2021,06,12,08,10,2.40
2021,06,12,08,11,3.00
2021,06,12,08,12,3.60
2021,06,12,08,13,3.20
2021,06,12,08,14,2.20
2021,06,12,08,15,2.30
2021,06,12,08,16,1.60
2021,06,12,08,17,0.80
2021,06,12,08,18,1.80
2021,06,12,08,19,1.90
2021,06,12,08,20,1.10
2021,06,12,08,21,1.10
2021,06,12,08,22,1.00
2021,06,12,08,23,1.40
2021,06,12,08,24,1.40
2021,06,12,08,25,2.80
2021,06,12,08,26,2.00
2021,06,12,08,27,1.60
2021,06,12,08,28,1.10
2021,06,12,08,29,2.00
2021,06,12,08,30,1.10
2021,06,12,08,31,1.70
2021,06,12,08,32,1.80
2021,06,12,08,33,2.10
2021,06,12,08,34,2.40
2021,06,12,08,35,3.00
2021,06,12,08,36,3.30
2021,06,12,08,37,4.00
2021,06,12,08,38,3.90
2021,06,12,08,39,3.50
2021,06,12,08,40,3.10
2021,06,12,08,41,3.00
2021,06,12,08,42,2.30
2021,06,12,08,43,1.70
2021,06,12,08,44,1.50
2021,06,12,08,45,1.10
2021,06,12,08,46,1.40
2021,06,12,08,47,1.90
2021,06,12,08,48,2.40
2021,06,12,08,49,2.10
2021,06,12,08,50,2.10
2021,06,12,08,51,2.40
2021,06,12,08,52,3.00
2021,06,12,08,53,2.10
2021,06,12,08,54,1.50
2021,06,12,08,55,1.60
2021,06,12,08,56,1.60
2021,06,12,08,57,1.00
2021,06,12,08,58,1.30
2021,06,12,08,59,1.10
2021,06,12,09,00,1.40
2021,06,12,09,01,2.40
2021,06,12,09,02,3.10
2021,06,12,09,03,2.90
2021,06,12,09,04,3.30
2021,06,12,09,05,3.40
2021,06,12,09,06,3.10
2021,06,12,09,07,3.40
2021,06,12,09,08,2.40
2021,06,12,09,09,2.40
2021,06,12,09,10,2.70
2021,06,12,09,11,2.90
2021,06,12,09,12,2.90
2021,06,12,09,13,2.70
2021,06,12,09,14,2.30
2021,06,12,09,15,3.20
2021,06,12,09,16,2.90
2021,06,12,09,17,2.40
2021,06,12,09,18,1.30
2021,06,12,09,19,0.00
2021,06,12,09,20,0.90
2021,06,12,09,21,2.10
2021,06,12,09,22,2.00
2021,06,12,09,23,2.80
2021,06,12,09,24,3.20
2021,06,12,09,25,5.50
2021,06,12,09,26,5.80
2021,06,12,09,27,5.20
2021,06,12,09,28,9.00
2021,06,12,09,29,8.30
2021,06,12,09,30,7.70
2021,06,12,09,31,7.50
2021,06,12,09,32,7.00
2021,06,12,09,33,6.30
2021,06,12,09,34,6.40
2021,06,12,09,35,5.80
2021,06,12,09,36,7.40
2021,06,12,09,37,8.00
2021,06,12,09,38,6.50
2021,06,12,09,39,5.80
2021,06,12,09,40,6.00
2021,06,12,09,41,7.30
2021,06,12,09,42,11.00
2021,06,12,09,43,12.00
2021,06,12,09,44,11.20
2021,06,12,09,45,10.10
2021,06,12,09,46,9.50
2021,06,12,09,47,8.30
2021,06,12,09,48,7.60
2021,06,12,09,49,12.20
2021,06,12,09,50,10.60
2021,06,12,09,51,9.50
2021,06,12,09,52,8.00
2021,06,12,09,53,6.30
2021,06,12,09,54,6.90
2021,06,12,09,55,5.50
2021,06,12,09,56,5.20
2021,06,12,09,57,5.20
2021,06,12,09,58,3.90
2021,06,12,09,59,2.90
2021,06,12,10,00,3.30
2021,06,12,10,01,3.10
2021,06,12,10,02,3.00
2021,06,12,10,03,2.30
2021,06,12,10,04,2.20
2021,06,12,10,05,2.10
2021,06,12,10,06,2.40
2021,06,12,10,07,2.10
2021,06,12,10,08,3.00
2021,06,12,10,09,3.10
2021,06,12,10,10,3.90
2021,06,12,10,11,3.40
2021,06,12,10,12,2.40
2021,06,12,10,13,2.60
2021,06,12,10,14,2.70
2021,06,12,10,15,3.70
2021,06,12,10,16,3.40
2021,06,12,10,17,3.40
2021,06,12,10,18,3.80
2021,06,12,10,19,4.50
2021,06,12,10,20,4.50
2021,06,12,10,21,4.90
2021,06,12,10,22,4.70
2021,06,12,10,23,4.00
2021,06,12,10,24,3.40
2021,06,12,10,25,3.40
2021,06,12,10,26,3.10
2021,06,12,10,27,3.80
2021,06,12,10,28,4.80
2021,06,12,10,29,4.90
2021,06,12,10,30,4.60
2021,06,12,10,31,3.30
2021,06,12,10,32,4.20
2021,06,12,10,33,4.80
2021,06,12,10,34,4.10
2021,06,12,10,35,4.30
2021,06,12,10,36,4.20
2021,06,12,10,37,4.40
2021,06,12,10,38,3.90
2021,06,12,10,39,4.80
2021,06,12,10,40,5.10
2021,06,12,10,41,4.90
2021,06,12,10,42,3.50
2021,06,12,10,43,3.70
2021,06,12,10,44,2.80
2021,06,12,10,45,2.90
2021,06,12,10,46,3.20
2021,06,12,10,47,2.70
2021,06,12,10,48,1.70
2021,06,12,10,49,3.30
2021,06,12,10,50,3.10
2021,06,12,10,51,4.10
2021,06,12,10,52,4.40
2021,06,12,10,53,4.60
2021,06,12,10,54,4.30
2021,06,12,10,55,4.60
2021,06,12,10,56,4.70
2021,06,12,10,57,4.90
2021,06,12,10,58,4.70
2021,06,12,10,59,3.90
2021,06,12,11,00,3.70
2021,06,12,11,01,3.60
2021,06,12,11,02,3.00
2021,06,12,11,03,3.00
2021,06,12,11,04,3.00
2021,06,12,11,05,2.60
2021,06,12,11,06,2.60
2021,06,12,11,07,3.20
2021,06,12,11,08,3.30
2021,06,12,11,09,3.60
2021,06,12,11,10,3.60
2021,06,12,11,11,3.80
2021,06,12,11,12,3.90
2021,06,12,11,13,3.40
2021,06,12,11,14,3.30
2021,06,12,11,15,3.10
2021,06,12,11,16,3.00
2021,06,12,11,17,3.80
2021,06,12,11,18,3.90
2021,06,12,11,19,3.60
2021,06,12,11,20,3.90
2021,06,12,11,21,5.00
2021,06,12,11,22,4.20
2021,06,12,11,23,4.50
2021,06,12,11,24,4.50
2021,06,12,11,25,4.80
2021,06,12,11,26,4.90
2021,06,12,11,27,5.00
2021,06,12,11,28,5.60
2021,06,12,11,29,5.30
2021,06,12,11,30,5.70
2021,06,12,11,31,5.70
2021,06,12,11,32,5.80
2021,06,12,11,33,6.10
2021,06,12,11,34,6.00
2021,06,12,11,35,5.70
2021,06,12,11,36,6.30
2021,06,12,11,37,6.10
2021,06,12,11,38,6.10
2021,06,12,11,39,4.70
2021,06,12,11,40,5.10
2021,06,12,11,41,4.70
2021,06,12,11,42,4.90
2021,06,12,11,43,4.50
2021,06,12,11,44,4.80
2021,06,12,11,45,4.80
2021,06,12,11,46,4.50
2021,06,12,11,47,4.30
2021,06,12,11,48,4.60
2021,06,12,11,49,4.00
2021,06,12,11,50,4.00
2021,06,12,11,51,3.30
2021,06,12,11,52,3.60
2021,06,12,11,53,3.70
2021,06,12,11,54,3.60
2021,06,12,11,55,3.20
2021,06,12,11,56,3.60
2021,06,12,11,57,3.10
2021,06,12,11,58,3.20
2021,06,12,11,59,3.30
2021,06,12,12,00,3.00
2021,06,12,12,01,3.90
2021,06,12,12,02,4.70
2021,06,12,12,03,4.60
2021,06,12,12,04,4.20
2021,06,12,12,05,3.30
2021,06,12,12,06,3.00
2021,06,12,12,07,3.10
2021,06,12,12,08,3.50
2021,06,12,12,09,3.40
2021,06,12,12,10,3.80
2021,06,12,12,11,3.90
2021,06,12,12,12,4.40
2021,06,12,12,13,4.30
2021,06,12,12,14,4.00
2021,06,12,12,15,5.50
2021,06,12,12,16,5.00
2021,06,12,12,17,4.60
2021,06,12,12,18,5.20
2021,06,12,12,19,5.50
2021,06,12,12,20,4.40
2021,06,12,12,21,5.10
2021,06,12,12,22,5.70
2021,06,12,12,23,6.00
2021,06,12,12,24,6.10
2021,06,12,12,25,6.00
2021,06,12,12,26,6.50
2021,06,12,12,27,6.60
2021,06,12,12,28,6.40
2021,06,12,12,29,5.10
2021,06,12,12,30,4.50
2021,06,12,12,31,5.70
2021,06,12,12,32,7.20
2021,06,12,12,33,5.50
2021,06,12,12,34,5.90
2021,06,12,12,35,6.20
2021,06,12,12,36,6.20
2021,06,12,12,37,6.70
2021,06,12,12,38,6.90
2021,06,12,12,39,7.70
2021,06,12,12,40,7.40
2021,06,12,12,41,6.60
2021,06,12,12,42,7.10
2021,06,12,12,43,7.40
2021,06,12,12,44,7.30
2021,06,12,12,45,6.50
2021,06,12,12,46,5.90
2021,06,12,12,47,5.40
2021,06,12,12,48,5.50
2021,06,12,12,49,5.30
2021,06,12,12,50,4.80
2021,06,12,12,51,4.20
2021,06,12,12,52,4.00
2021,06,12,12,53,4.90
2021,06,12,12,54,5.20
2021,06,12,12,55,5.20
2021,06,12,12,56,5.10
2021,06,12,12,57,4.10
2021,06,12,12,58,4.90
2021,06,12,12,59,5.10
2021,06,12,13,00,5.90
2021,06,12,13,01,6.00
2021,06,12,13,02,5.80
2021,06,12,13,03,5.20
2021,06,12,13,04,6.70
2021,06,12,13,05,6.30
2021,06,12,13,06,5.40
2021,06,12,13,07,5.70
2021,06,12,13,08,5.80
2021,06,12,13,09,5.20
2021,06,12,13,10,6.80
2021,06,12,13,11,7.20
2021,06,12,13,12,6.70
2021,06,12,13,13,6.40
2021,06,12,13,14,5.10
2021,06,12,13,15,6.00
2021,06,12,13,16,6.10
2021,06,12,13,17,6.00
2021,06,12,13,18,5.50
2021,06,12,13,19,5.60
2021,06,12,13,20,5.20
2021,06,12,13,21,4.90
2021,06,12,13,22,4.30
2021,06,12,13,23,4.60
2021,06,12,13,24,5.00
2021,06,12,13,25,5.40
2021,06,12,13,26,4.90
2021,06,12,13,27,4.70
2021,06,12,13,28,5.40
2021,06,12,13,29,5.40
2021,06,12,13,30,5.30
2021,06,12,13,31,5.60
2021,06,12,13,32,6.00
2021,06,12,13,33,5.70
2021,06,12,13,34,4.60
2021,06,12,13,35,5.00
2021,06,12,13,36,5.50
2021,06,12,13,37,5.70
2021,06,12,13,38,5.50
2021,06,12,13,39,5.90
2021,06,12,13,40,5.20
2021,06,12,13,41,4.40
2021,06,12,13,42,5.00
2021,06,12,13,43,4.20
2021,06,12,13,44,3.60
2021,06,12,13,45,5.40
2021,06,12,13,46,7.70
2021,06,12,13,47,8.40
2021,06,12,13,48,6.70
2021,06,12,13,49,7.60
2021,06,12,13,50,8.50
2021,06,12,13,51,10.00
2021,06,12,13,52,9.80
2021,06,12,13,53,8.90
2021,06,12,13,54,7.80
2021,06,12,13,55,7.40
2021,06,12,13,56,6.60
2021,06,12,13,57,5.40
2021,06,12,13,58,4.90
2021,06,12,13,59,5.40
2021,06,12,14,00,6.10
2021,06,12,14,01,7.80
2021,06,12,14,02,6.60
2021,06,12,14,03,5.80
2021,06,12,14,04,5.80
2021,06,12,14,05,4.50
2021,06,12,14,06,5.40
2021,06,12,14,07,5.40
2021,06,12,14,08,4.80
2021,06,12,14,09,4.80
2021,06,12,14,10,4.80
2021,06,12,14,11,4.20
2021,06,12,14,12,4.10
2021,06,12,14,13,3.50
2021,06,12,14,14,4.00
2021,06,12,14,15,3.70
2021,06,12,14,16,2.40
2021,06,12,14,17,2.00
2021,06,12,14,18,2.90
2021,06,12,14,19,2.70
2021,06,12,14,20,3.50
2021,06,12,14,21,3.40
2021,06,12,14,22,3.50
2021,06,12,14,23,4.00
2021,06,12,14,24,3.00
2021,06,12,14,25,3.90
2021,06,12,14,26,4.70
2021,06,12,14,27,6.00
2021,06,12,14,28,5.20
2021,06,12,14,29,5.70
2021,06,12,14,30,5.10
2021,06,12,14,31,4.30
2021,06,12,14,32,3.90
2021,06,12,14,33,3.60
2021,06,12,14,34,3.90
2021,06,12,14,35,4.10
2021,06,12,14,36,4.10
2021,06,12,14,37,4.20
2021,06,12,14,38,4.20
2021,06,12,14,39,4.30
2021,06,12,14,40,4.60
2021,06,12,14,41,5.20
2021,06,12,14,42,4.40
2021,06,12,14,43,3.40
2021,06,12,14,44,3.00
2021,06,12,14,45,3.40
2021,06,12,14,46,3.30
2021,06,12,14,47,4.60
2021,06,12,14,48,4.30
2021,06,12,14,49,4.60
2021,06,12,14,50,4.50
2021,06,12,14,51,5.90
2021,06,12,14,52,5.20
2021,06,12,14,53,5.40
2021,06,12,14,54,5.50
2021,06,12,14,55,4.20
2021,06,12,14,56,4.00
2021,06,12,14,57,4.20
2021,06,12,14,58,3.70
2021,06,12,14,59,3.70
2021,06,12,15,00,3.70
2021,06,12,15,01,4.20
2021,06,12,15,02,4.10
2021,06,12,15,03,5.10
2021,06,12,15,04,5.20
2021,06,12,15,05,5.20
2021,06,12,15,06,4.80
2021,06,12,15,07,4.80
2021,06,12,15,08,4.60
2021,06,12,15,09,5.70
2021,06,12,15,10,5.70
2021,06,12,15,11,5.50
2021,06,12,15,12,5.30
2021,06,12,15,13,6.00
2021,06,12,15,14,4.90
2021,06,12,15,15,5.30
2021,06,12,15,16,4.90
2021,06,12,15,17,5.40
2021,06,12,15,18,4.80
2021,06,12,15,19,5.50
2021,06,12,15,20,5.10
2021,06,12,15,21,4.80
2021,06,12,15,22,4.30
2021,06,12,15,23,3.30
2021,06,12,15,24,3.20
2021,06,12,15,25,3.30
2021,06,12,15,26,2.80
2021,06,12,15,27,2.70
2021,06,12,15,28,3.00
2021,06,12,15,29,2.90
2021,06,12,15,30,3.00
2021,06,12,15,31,3.40
2021,06,12,15,32,3.20
2021,06,12,15,33,2.50
2021,06,12,15,34,3.00
2021,06,12,15,35,3.40
2021,06,12,15,36,3.40
2021,06,12,15,37,3.30
2021,06,12,15,38,3.30
2021,06,12,15,39,3.60
2021,06,12,15,40,3.40
2021,06,12,15,41,3.70
2021,06,12,15,42,4.20
2021,06,12,15,43,3.60
2021,06,12,15,44,3.80
2021,06,12,15,45,3.20
2021,06,12,15,46,3.00
2021,06,12,15,47,3.20
2021,06,12,15,48,2.80
2021,06,12,15,49,2.90
2021,06,12,15,50,3.30
2021,06,12,15,51,3.40
2021,06,12,15,52,3.20
2021,06,12,15,53,3.20
2021,06,12,15,54,2.90
2021,06,12,15,55,3.60
2021,06,12,15,56,3.30
2021,06,12,15,57,3.20
2021,06,12,15,58,2.50
2021,06,12,15,59,2.10
2021,06,12,16,00,1.60
2021,06,12,16,01,1.70
2021,06,12,16,02,0.80
2021,06,12,16,03,1.00
2021,06,12,16,04,1.00
2021,06,12,16,05,0.80
2021,06,12,16,06,2.10
2021,06,12,16,07,2.10
2021,06,12,16,08,2.20
2021,06,12,16,09,2.40
2021,06,12,16,10,2.10
2021,06,12,16,11,2.50
2021,06,12,16,12,2.60
2021,06,12,16,13,3.10
2021,06,12,16,14,3.10
2021,06,12,16,15,2.50
2021,06,12,16,16,2.70
2021,06,12,16,17,2.00
2021,06,12,16,18,2.90
2021,06,12,16,19,3.00
2021,06,12,16,20,2.70
2021,06,12,16,21,2.80
2021,06,12,16,22,3.30
2021,06,12,16,23,3.40
2021,06,12,16,24,2.30
2021,06,12,16,25,2.90
2021,06,12,16,26,3.00
2021,06,12,16,27,5.70
2021,06,12,16,28,7.30
2021,06,12,16,29,7.60
2021,06,12,16,30,7.40
2021,06,12,16,31,7.60
2021,06,12,16,32,6.30
2021,06,12,16,33,6.20
2021,06,12,16,34,6.40
2021,06,12,16,35,6.70
2021,06,12,16,36,7.50
2021,06,12,16,37,6.40
2021,06,12,16,38,4.30
2021,06,12,16,39,4.00
2021,06,12,16,40,4.20
2021,06,12,16,41,6.30
2021,06,12,16,42,9.00
2021,06,12,16,43,9.50
2021,06,12,16,44,9.10
2021,06,12,16,45,9.90
2021,06,12,16,46,8.80
2021,06,12,16,47,7.00
2021,06,12,16,48,5.20
2021,06,12,16,49,4.30
2021,06,12,16,50,4.00
2021,06,12,16,51,3.60
2021,06,12,16,52,4.10
2021,06,12,16,53,5.10
2021,06,12,16,54,5.70
2021,06,12,16,55,6.60
2021,06,12,16,56,6.80
2021,06,12,16,57,4.90
2021,06,12,16,58,5.30
2021,06,12,16,59,4.60
2021,06,12,17,00,4.60
2021,06,12,17,01,4.90
2021,06,12,17,02,5.10
2021,06,12,17,03,6.70
2021,06,12,17,04,7.30
2021,06,12,17,05,7.70
2021,06,12,17,06,8.80
2021,06,12,17,07,9.80
2021,06,12,17,08,9.50
2021,06,12,17,09,7.70
2021,06,12,17,10,4.60
2021,06,12,17,11,4.80
2021,06,12,17,12,4.10
2021,06,12,17,13,5.30
2021,06,12,17,14,5.60
2021,06,12,17,15,5.80
2021,06,12,17,16,7.10
2021,06,12,17,17,6.70
2021,06,12,17,18,8.40
2021,06,12,17,19,9.20
2021,06,12,17,20,8.20
2021,06,12,17,21,8.20
2021,06,12,17,22,7.70
2021,06,12,17,23,8.30
2021,06,12,17,24,7.30
2021,06,12,17,25,7.90
2021,06,12,17,26,7.90
2021,06,12,17,27,9.80
2021,06,12,17,28,10.80
2021,06,12,17,29,9.00
2021,06,12,17,30,5.80
2021,06,12,17,31,5.00
2021,06,12,17,32,4.90
2021,06,12,17,33,5.20
2021,06,12,17,34,6.00
2021,06,12,17,35,6.70
2021,06,12,17,36,6.40
2021,06,12,17,37,6.20
2021,06,12,17,38,6.70
2021,06,12,17,39,5.80
2021,06,12,17,40,6.20
2021,06,12,17,41,6.70
2021,06,12,17,42,6.20
2021,06,12,17,43,6.50
2021,06,12,17,44,7.30
2021,06,12,17,45,7.00
2021,06,12,17,46,7.00
2021,06,12,17,47,5.70
2021,06,12,17,48,4.60
2021,06,12,17,49,5.20
2021,06,12,17,50,4.90
2021,06,12,17,51,5.70
2021,06,12,17,52,5.70
2021,06,12,17,53,4.80
2021,06,12,17,54,4.60
2021,06,12,17,55,6.60
2021,06,12,17,56,7.90
2021,06,12,17,57,6.20
2021,06,12,17,58,5.20
2021,06,12,17,59,5.00
2021,06,12,18,00,5.30
2021,06,12,18,01,4.80
2021,06,12,18,02,4.90
2021,06,12,18,03,6.40
2021,06,12,18,04,5.40
2021,06,12,18,05,6.40
2021,06,12,18,06,6.00